Regional Weather Roundup
Issued by NWS

Home | Current Version | Previous Version | Text Only | Print | Product List | Glossary Off
Versions: 1 2 3 4 5 6 7 8 9 10 11 12 13 14 15 16 17 18 19 20 21 22 23 24 25 26 27 28 29 30 31 32 33 34 35 36 37 38 39 40 41 42 43 44 45 46 47 48 49 50

000
ASUS43 KLOT 202100
RWRIL

ILLINOIS REGIONAL WEATHER ROUNDUP
NATIONAL WEATHER SERVICE CHICAGO/ROMEOVILLE IL
300 PM CST THU NOV 20 2014

NOTE: "FAIR" INDICATES FEW OR NO CLOUDS BELOW 12,000 FEET WITH NO
SIGNIFICANT WEATHER AND/OR OBSTRUCTIONS TO VISIBILITY.

* THESE STATIONS ARE NOT UNDER NWS QUALITY CONTROL. THEY ALSO MAY NOT
  REPORT WEATHER SUCH AS PRECIPITATION OR FOG.

ILZ001-002-007-009-015-016-024-202200-
NORTHWEST ILLINOIS

CITY           SKY/WX    TMP DP  RH WIND       PRES   REMARKS
MOLINE         SUNNY     28   8  43 NW16G25   30.17R WCI  16
STERLING*      SUNNY     28   7  40 W20G28    30.15R WCI  15
$$

ILZ003-004-008-010-011-017-018-202200-
NORTH CENTRAL ILLINOIS

CITY           SKY/WX    TMP DP  RH WIND       PRES   REMARKS
ROCKFORD       MOSUNNY   26   3  37 W18G28    30.13R WCI  13
FREEPORT*      SUNNY     24   5  43 W18G24    30.13R WCI  10
$$

ILZ005-006-012>014-019>023-202200-
NORTHEAST ILLINOIS

CITY           SKY/WX    TMP DP  RH WIND       PRES   REMARKS
CHICAGO-OHARE  MOSUNNY   26   1  34 W18G30    30.08R WCI  13
CHICAGO-MIDWAY MOSUNNY   29   3  33 W16G28    30.09R WCI  17
AURORA         SUNNY     28   4  35 W20G29    30.10R WCI  15
LANSING*       SUNNY     28   4  35 W17G29    30.09R WCI  16
WAUKEGAN       SUNNY     24   0  35 W10G21    30.05R WCI  14
DUPAGE AIRPORT SUNNY     27   1  32 W18G30    30.09R WCI  14
WHEELING       SUNNY     26   0  32 W20G26    30.09R WCI  12
NORTHERLY ISL    N/A     28   2  32 W12         N/A  WCI  18
$$

LMZ740>746-202200-
SOUTHERN LAKE MICHIGAN

STATION/POSITION SKY/WX   TEMP    WIND        PRES    VSBY  WAVE
                          AIR SEA DIR/SP/G                  HT/PER
                          (F)     (DEG/KT/KT) (MB)    (MI)  (FT/S)
SOUTHERN BUOY              25 43  280/ 19/ 27 1017.4R         6/ 5
WAUKEGAN HARBOR            25     280/ 20/ 26   N/A
HARRISON CRIB              26     270/ 22/ 29   N/A
BURNHAM HARBOR             28     290/  8/ 20   N/A
CALUMET HARBOR             27     260/ 12/ 19 1017.4R
MICHIGAN CITY              27     240/ 25/ 28   N/A
$$

ILZ025>027-034>036-040-047-049-050-058-095>099-202200-
WEST-CENTRAL ILLINOIS

CITY           SKY/WX    TMP DP  RH WIND       PRES   REMARKS
QUINCY         SUNNY     34  10  37 W10       30.19S WCI  26
MACOMB*        SUNNY     32  12  43 W14G20    30.20S WCI  22
$$

ILZ028>032-037-038-041>044-048-051>054-059>061-202200-
CENTRAL ILLINOIS

CITY           SKY/WX    TMP DP  RH WIND       PRES   REMARKS
DECATUR        SUNNY     33  13  43 W16       30.18R WCI  23
PEORIA         SUNNY     33   7  33 W15       30.17R WCI  23
LINCOLN*       SUNNY     35  11  36 W9        30.18R WCI  28
SPRINGFIELD    SUNNY     35  13  40 W16       30.19R WCI  25
TAYLORVILLE    NOT AVBL
$$

ILZ033-039-045-046-055>057-062-063-202200-
EAST-CENTRAL ILLINOIS

CITY           SKY/WX    TMP DP  RH WIND       PRES   REMARKS
CHAMPAIGN      SUNNY     33  12  41 W17       30.15R WCI  22
MATTOON        MOSUNNY   31  16  54 W13       30.18R WCI  21
$$

ILZ079-100>102-202200-
SOUTHWEST ILLINOIS

CITY           SKY/WX    TMP DP  RH WIND       PRES   REMARKS
ALTON          PTSUNNY   36  16  44 W14       30.21S WCI  27
CAHOKIA*       CLOUDY    38  19  46 W6        30.22R WCI  33
$$

ILZ064>066-069>071-074>076-080>082-084>086-088>090-092>094-202200-
SOUTH-CENTRAL ILLINOIS

CITY           SKY/WX    TMP DP  RH WIND       PRES   REMARKS
CARBONDALE     SUNNY     40  17  39 W10       30.22S
MARION         SUNNY     39  18  41 NW8       30.23S WCI  34
MT. VERNON     MOSUNNY   34  16  47 W7        30.22S WCI  28
$$

ILZ067-068-072-073-078-083-087-091-202200-
SOUTHEAST ILLINOIS

CITY           SKY/WX    TMP DP  RH WIND       PRES   REMARKS
LAWRENCEVILLE  SUNNY     34  16  47 W13       30.21S WCI  25
$$

ABBREVIATIONS USED IN REMARKS
   TC - TEMPERATURE IN CELSIUS
  WCI - WIND CHILL INDEX
   HX - HEAT INDEX
  VSB - VISIBILITY
$$




USA.gov is the U.S. government's official web portal to all federal, state and local government web resources and services.